GW3210 Weather Reports


time (UTC)temp
C
wind
direction
speed
KPH
gust
KPH
rain 1hr
cm
rain 24hr
cm
rain mn
cm
humidity
%
barometer
mb
20260509154337 11 315 3.2 4.8 0.00 0.00 0.00 69 1022.4
20260509153316 11 0 1.6 4.8 0.00 0.00 0.00 69 1022.6
20260509152317 11 338 3.2 4.8 0.00 0.00 0.00 70 1022.8
20260509151316 11 293 3.2 4.8 0.00 0.00 0.00 70 1023.1
20260509150337 11 0 4.8 6.4 0.00 0.00 0.00 72 1023.1
20260509145317 10 113 1.6 1.6 0.00 0.00 0.00 74 1023.0
20260509144317 10 158 1.6 3.2 0.00 0.00 0.00 76 1022.9
20260509143316 10 0.0 1.6 0.00 0.00 0.00 78 1022.9
20260509142337 10 158 1.6 1.6 0.00 0.00 0.00 81 1022.8
20260509141317 10 158 3.2 4.8 0.00 0.00 0.00 81 1022.7
20260509140317 9 158 1.6 3.2 0.00 0.00 0.00 82 1022.8
20260509135317 9 158 3.2 4.8 0.00 0.00 0.00 82 1022.7
20260509134317 8 135 4.8 6.4 0.00 0.00 0.00 83 1022.7
20260509133317 8 158 4.8 4.8 0.00 0.00 0.00 82 1022.7
20260509132317 8 180 4.8 4.8 0.00 0.00 0.00 78 1022.6
20260509131316 8 203 1.6 3.2 0.00 0.00 0.00 76 1022.6
20260509130337 8 203 3.2 3.2 0.00 0.00 0.00 74 1022.7
20260509125316 8 0.0 0.0 0.00 0.00 0.00 73 1022.7
20260509124316 8 0.0 0.0 0.00 0.00 0.00 72 1022.9
20260509123316 8 0.0 0.0 0.00 0.00 0.00 72 1022.9
20260509122317 8 0.0 0.0 0.00 0.00 0.00 71 1022.9
20260509121316 8 0.0 0.0 0.00 0.00 0.00 69 1022.9
20260509120316 8 0.0 0.0 0.00 0.00 0.00 69 1022.8
20260509115337 8 0.0 0.0 0.00 0.00 0.00 68 1023.0
20260509114337 8 0.0 0.0 0.00 0.00 0.00 68 1023.0
20260509113316 8 0.0 0.0 0.00 0.00 0.00 68 1023.2
20260509112317 9 0.0 0.0 0.00 0.00 0.00 68 1023.3
20260509111316 9 270 1.6 3.2 0.00 0.00 0.00 68 1023.4
20260509110358 9 270 1.6 1.6 0.00 0.00 0.00 67 1023.4
20260509105316 9 270 3.2 3.2 0.00 0.00 0.00 67 1023.5
20260509104316 10 270 1.6 3.2 0.00 0.00 0.00 66 1023.4
20260509103317 10 270 1.6 1.6 0.00 0.00 0.00 66 1023.4
20260509102317 10 270 1.6 3.2 0.00 0.00 0.00 66 1023.4
20260509101317 10 270 3.2 3.2 0.00 0.00 0.00 66 1023.3
20260509100316 10 270 3.2 3.2 0.00 0.00 0.00 66 1023.3
20260509095316 10 270 1.6 3.2 0.00 0.00 0.00 66 1023.4
20260509094316 10 293 1.6 3.2 0.00 0.00 0.00 65 1023.4
20260509093316 10 293 1.6 3.2 0.00 0.00 0.00 65 1023.5
20260509092316 10 0.0 1.6 0.00 0.00 0.00 65 1023.6
20260509091337 10 0.0 0.0 0.00 0.00 0.00 64 1023.7
20260509090316 11 0.0 0.0 0.00 0.00 0.00 64 1023.8
20260509085316 11 0.0 0.0 0.00 0.00 0.00 63 1023.8
20260509084316 11 293 1.6 1.6 0.00 0.00 0.00 63 1024.0
20260509083315 11 293 3.2 3.2 0.00 0.00 0.00 63 1024.1
20260509082316 11 293 3.2 4.8 0.00 0.00 0.00 62 1024.2
20260509081337 11 293 4.8 9.7 0.00 0.00 0.00 62 1024.1
20260509080316 12 293 1.6 3.2 0.00 0.00 0.00 61 1024.2
20260509075316 12 293 3.2 4.8 0.00 0.00 0.00 61 1024.2
20260509074316 12 293 3.2 8.0 0.00 0.00 0.00 60 1024.3
20260509073316 12 293 4.8 6.4 0.00 0.00 0.00 60 1024.3
20260509072317 12 293 4.8 6.4 0.00 0.00 0.00 59 1024.3
20260509071316 12 293 4.8 6.4 0.00 0.00 0.00 59 1024.4
20260509070316 13 293 3.2 4.8 0.00 0.00 0.00 58 1024.3
20260509065317 13 293 4.8 6.4 0.00 0.00 0.00 57 1024.3
20260509064317 13 293 4.8 6.4 0.00 0.00 0.00 57 1024.4
20260509063317 13 293 3.2 6.4 0.00 0.00 0.00 56 1024.3
20260509062316 13 270 4.8 6.4 0.00 0.00 0.00 55 1024.3
20260509061317 13 293 4.8 6.4 0.00 0.00 0.00 54 1024.1
20260509060317 13 270 3.2 6.4 0.00 0.00 0.00 54 1024.0
20260509055317 14 270 4.8 6.4 0.00 0.00 0.00 53 1024.0
20260509054337 14 270 4.8 6.4 0.00 0.00 0.00 52 1023.8
20260509053337 14 315 4.8 8.0 0.00 0.00 0.00 52 1023.8
20260509052317 15 315 9.7 16.1 0.00 0.00 0.00 52 1023.9
20260509051316 15 293 4.8 8.0 0.00 0.00 0.00 52 1023.9
20260509050337 15 338 6.4 9.7 0.00 0.00 0.00 52 1023.9
20260509045316 15 315 4.8 11.3 0.00 0.00 0.00 52 1023.8
20260509044316 15 338 6.4 8.0 0.00 0.00 0.00 52 1023.7
20260509043317 15 0 12.9 16.1 0.00 0.00 0.00 51 1023.8
20260509042317 15 315 4.8 8.0 0.00 0.00 0.00 51 1023.6
20260509041337 15 338 6.4 12.9 0.00 0.00 0.00 50 1023.5
20260509040316 15 315 8.0 14.5 0.00 0.00 0.00 50 1023.5
20260509035337 16 315 12.9 17.7 0.00 0.00 0.00 49 1023.4
20260509034317 16 315 8.0 12.9 0.00 0.00 0.00 47 1023.2
20260509033316 16 315 4.8 8.0 0.00 0.00 0.00 46 1023.1
20260509032316 16 0 8.0 12.9 0.00 0.00 0.00 46 1023.1
20260509031316 16 338 4.8 8.0 0.00 0.00 0.00 45 1023.0
20260509030316 16 315 4.8 6.4 0.00 0.00 0.00 44 1023.0
20260509025336 17 338 6.4 9.7 0.00 0.00 0.00 44 1023.0
20260509024316 17 338 6.4 9.7 0.00 0.00 0.00 44 1022.9
20260509023337 17 338 9.7 16.1 0.00 0.00 0.00 42 1022.9
20260509022316 17 23 4.8 12.9 0.00 0.00 0.00 42 1022.9
20260509021316 17 293 8.0 12.9 0.00 0.00 0.00 41 1022.8
20260509020317 18 0 4.8 6.4 0.00 0.00 0.00 41 1022.9
20260509015316 18 293 6.4 8.0 0.00 0.00 0.00 39 1022.9
20260509014337 18 315 3.2 4.8 0.00 0.00 0.00 38 1022.8
20260509013357 18 0 3.2 6.4 0.00 0.00 0.00 38 1022.9
20260509012316 20 0 4.8 8.0 0.00 0.00 0.00 36 1023.0
20260509011316 20 293 4.8 8.0 0.00 0.00 0.00 35 1023.0
20260509010316 20 293 3.2 6.4 0.00 0.00 0.00 34 1023.1
20260509005316 20 338 8.0 9.7 0.00 0.00 0.00 36 1023.0
20260509004316 20 0 8.0 16.1 0.00 0.00 0.00 36 1023.0
20260509003316 19 270 8.0 11.3 0.00 0.00 0.00 34 1023.1
20260509002316 20 338 8.0 14.5 0.00 0.00 0.00 33 1023.2
20260509001316 20 315 4.8 8.0 0.00 0.00 0.00 33 1023.2
20260509000318 21 338 6.4 9.7 0.00 0.00 0.00 32 1023.3
20260508235357 21 0 8.0 12.9 0.00 0.00 0.00 32 1023.2
20260508234316 21 248 8.0 12.9 0.00 0.00 0.00 32 1023.2
20260508233316 20 315 8.0 12.9 0.00 0.00 0.00 33 1023.3
20260508232315 20 203 3.2 4.8 0.00 0.00 0.00 32 1023.3
20260508231316 20 293 8.0 11.3 0.00 0.00 0.00 33 1023.3
20260508230316 20 293 4.8 9.7 0.00 0.00 0.00 32 1023.4
20260508225336 20 293 9.7 12.9 0.00 0.00 0.00 33 1023.5
20260508224316 20 338 3.2 4.8 0.00 0.00 0.00 34 1023.5
20260508223316 19 203 6.4 9.7 0.00 0.00 0.00 33 1023.5
20260508222316 20 315 3.2 3.2 0.00 0.00 0.00 31 1023.5
20260508221316 19 0 4.8 6.4 0.00 0.00 0.00 35 1023.5
20260508220316 19 248 3.2 4.8 0.00 0.00 0.00 34 1023.6
20260508215315 19 270 4.8 8.0 0.00 0.00 0.00 33 1023.6
20260508214316 19 293 9.7 14.5 0.00 0.00 0.00 35 1023.7
20260508213316 18 0.0 1.6 0.00 0.00 0.00 35 1023.7
20260508212335 18 315 6.4 9.7 0.00 0.00 0.00 35 1023.7
20260508211317 18 225 3.2 4.8 0.00 0.00 0.00 34 1023.7
20260508210317 18 248 14.5 17.7 0.00 0.00 0.00 35 1023.6
20260508205317 18 293 1.6 4.8 0.00 0.00 0.00 36 1023.7
20260508204316 17 270 4.8 11.3 0.00 0.00 0.00 38 1023.6
20260508203317 17 135 6.4 6.4 0.00 0.00 0.00 36 1023.6
20260508202317 17 45 1.6 4.8 0.00 0.00 0.00 36 1023.6
20260508201317 17 293 3.2 4.8 0.00 0.00 0.00 38 1023.7
20260508200317 16 180 3.2 6.4 0.00 0.00 0.00 40 1023.8
20260508195337 16 338 1.6 3.2 0.00 0.00 0.00 41 1023.7
20260508194317 16 338 4.8 9.7 0.00 0.00 0.00 43 1023.7
20260508193317 15 338 4.8 6.4 0.00 0.00 0.00 44 1023.5
20260508192317 15 90 3.2 3.2 0.00 0.00 0.00 42 1023.7
20260508191317 16 315 4.8 8.0 0.00 0.00 0.00 42 1023.7
20260508190338 16 45 1.6 4.8 0.00 0.00 0.00 43 1023.7
20260508185317 16 293 4.8 6.4 0.00 0.00 0.00 43 1023.7
20260508184317 15 293 4.8 11.3 0.00 0.00 0.00 46 1023.7
20260508183317 14 225 6.4 12.9 0.00 0.00 0.00 46 1023.7
20260508182317 14 225 3.2 6.4 0.00 0.00 0.00 47 1023.7
20260508181317 14 225 3.2 8.0 0.00 0.00 0.00 47 1023.5
20260508180317 14 338 3.2 4.8 0.00 0.00 0.00 50 1023.5
20260508175317 14 248 3.2 6.4 0.00 0.00 0.00 48 1023.6
20260508174317 13 225 1.6 3.2 0.00 0.00 0.00 51 1023.3
20260508173317 12 293 4.8 8.0 0.00 0.00 0.00 52 1023.3
20260508172459 12 135 3.2 6.4 0.00 0.00 0.00 53 1023.2
20260508171317 12 225 4.8 8.0 0.00 0.00 0.00 54 1023.0
20260508170317 11 225 3.2 4.8 0.00 0.00 0.00 55 1022.6
20260508165316 11 180 4.8 6.4 0.00 0.00 0.00 56 1022.5
20260508164317 11 180 4.8 8.0 0.00 0.00 0.00 56 1022.6
20260508163317 11 158 4.8 8.0 0.00 0.00 0.00 56 1022.7
20260508162316 11 90 4.8 6.4 0.00 0.00 0.00 59 1022.3
20260508161317 11 135 8.0 12.9 0.00 0.00 0.00 58 1022.4
20260508160317 10 135 9.7 11.3 0.00 0.00 0.00 59 1022.3
20260508155317 10 158 6.4 11.3 0.00 0.00 0.00 60 1022.2